User: anonymous   Login
Location: Unspecified
(0.0000°N, 0.0000°E)
Time: 11:02:11
(UTC+02:00)
Language:

Resurs 01 Rocket - Orbit

View from above orbital plane
View from above orbital plane
View from above satellite
View from above satellite

Ground track
Ground track

The orbit data is extracted from the following two-line orbital elements,

1 23343U 94074B   16120.67375369  .00000016  00000-0  10000-4 0  9997
2 23343  98.1974 146.4457 0006072 327.9670 142.9952 14.76650881155802
Epoch (UTC): 29 April 2016 16:10:12
Eccentricity: 0.0006072
inclination: 98.1974°
perigee height: 635 km
apogee height: 644 km
right ascension of ascending node: 146.4457°
argument of perigee: 327.9670°
revolutions per day: 14.76650881
mean anomaly at epoch: 142.9952°
orbit number at epoch: 15580

The dashed part of the orbit path shows where the satellite is in the earth's shadow,  

DLR